| time (UTC) | temp C | wind direction | speed KPH | gust KPH | rain 1hr cm | rain 24hr cm | rain mn cm | humidity % | barometer mb |
| 20260504081639 | 13 | 233 | 3.2 | 12.9 | 0.00 | 0.10 | 0.00 | 66 | 1011.1 |
| 20260504081139 | 13 | 253 | 3.2 | 9.7 | 0.00 | 0.10 | 0.00 | 67 | 1011.3 |
| 20260504080639 | 13 | 250 | 3.2 | 6.4 | 0.00 | 0.10 | 0.00 | 68 | 1011.5 |
| 20260504080139 | 13 | 46 | 3.2 | 11.3 | 0.00 | 0.10 | 0.00 | 68 | 1011.4 |
| 20260504070139 | 12 | 146 | 3.2 | 6.4 | 0.00 | 0.10 | 0.00 | 70 | 1010.4 |
| 20260504060139 | 12 | 63 | 1.6 | 4.8 | 0.00 | 0.10 | 0.00 | 76 | 1011.1 |
| 20260504050640 | 12 | 89 | 3.2 | 6.4 | 0.10 | 0.10 | 0.00 | 81 | 1011.8 |
| 20260504050139 | 12 | 178 | 3.2 | 4.8 | 0.10 | 0.10 | 0.00 | 80 | 1011.8 |
| 20260504045639 | 12 | 70 | 3.2 | 6.4 | 0.10 | 0.10 | 0.10 | 79 | 1011.8 |
| 20260504045139 | 13 | 81 | 3.2 | 6.4 | 0.10 | 0.10 | 0.10 | 76 | 1011.8 |
| 20260504044639 | 13 | 149 | 1.6 | 4.8 | 0.03 | 0.03 | 0.03 | 71 | 1012.2 |
| 20260504044139 | 14 | 81 | 1.6 | 8.0 | 0.00 | 0.00 | 0.00 | 64 | 1012.3 |
| 20260504043639 | 14 | 72 | 3.2 | 6.4 | 0.00 | 0.00 | 0.00 | 66 | 1011.9 |
| 20260504043139 | 13 | 135 | 3.2 | 6.4 | 0.00 | 0.00 | 0.00 | 67 | 1011.7 |
| 20260504042639 | 13 | 112 | 3.2 | 8.0 | 0.00 | 0.00 | 0.00 | 69 | 1011.9 |
| 20260504042139 | 13 | 142 | 3.2 | 4.8 | 0.00 | 0.00 | 0.00 | 71 | 1012.0 |
| 20260504041639 | 13 | 223 | 3.2 | 4.8 | 0.00 | 0.00 | 0.00 | 71 | 1012.1 |
| 20260504041139 | 13 | 148 | 3.2 | 8.0 | 0.00 | 0.00 | 0.00 | 69 | 1012.1 |
| 20260504040639 | 13 | 135 | 1.6 | 4.8 | 0.00 | 0.00 | 0.00 | 69 | 1012.1 |
| 20260504040139 | 13 | 129 | 1.6 | 4.8 | 0.00 | 0.00 | 0.00 | 69 | 1012.3 |
| 20260504035639 | 13 | 178 | 1.6 | 4.8 | 0.00 | 0.00 | 0.00 | 71 | 1012.4 |
| 20260504035139 | 13 | 142 | 3.2 | 4.8 | 0.00 | 0.00 | 0.00 | 68 | 1012.6 |
| 20260504034639 | 13 | 139 | 3.2 | 4.8 | 0.00 | 0.00 | 0.00 | 69 | 1012.7 |
| 20260504034139 | 13 | 112 | 3.2 | 3.2 | 0.00 | 0.00 | 0.00 | 68 | 1012.8 |
| 20260504033639 | 14 | 129 | 1.6 | 4.8 | 0.00 | 0.00 | 0.00 | 65 | 1012.9 |
| 20260504033139 | 15 | 82 | 1.6 | 4.8 | 0.00 | 0.00 | 0.00 | 59 | 1012.9 |
| 20260504032639 | 15 | 46 | 3.2 | 4.8 | 0.00 | 0.00 | 0.00 | 55 | 1013.1 |
| 20260504032139 | 15 | 60 | 3.2 | 11.3 | 0.00 | 0.00 | 0.00 | 56 | 1013.0 |
| 20260504031639 | 15 | 117 | 3.2 | 6.4 | 0.00 | 0.00 | 0.00 | 56 | 1012.1 |
| 20260504031139 | 15 | 203 | 3.2 | 8.0 | 0.00 | 0.00 | 0.00 | 56 | 1012.0 |
| 20260504030639 | 15 | 218 | 3.2 | 6.4 | 0.00 | 0.00 | 0.00 | 57 | 1012.0 |
| 20260504030139 | 15 | 140 | 3.2 | 8.0 | 0.00 | 0.00 | 0.00 | 57 | 1011.9 |
| 20260504025639 | 14 | 142 | 3.2 | 8.0 | 0.00 | 0.00 | 0.00 | 57 | 1012.0 |
| 20260504025139 | 14 | 141 | 3.2 | 8.0 | 0.00 | 0.00 | 0.00 | 58 | 1012.3 |
| 20260504024639 | 14 | 140 | 3.2 | 6.4 | 0.00 | 0.00 | 0.00 | 58 | 1012.4 |
| 20260504024139 | 14 | 139 | 3.2 | 6.4 | 0.00 | 0.00 | 0.00 | 59 | 1012.4 |
| 20260504023639 | 14 | 145 | 3.2 | 8.0 | 0.00 | 0.00 | 0.00 | 58 | 1012.5 |
| 20260504023139 | 14 | 135 | 3.2 | 6.4 | 0.00 | 0.00 | 0.00 | 58 | 1012.5 |
| 20260504022639 | 14 | 135 | 3.2 | 8.0 | 0.00 | 0.00 | 0.00 | 58 | 1012.6 |
| 20260504022139 | 14 | 161 | 3.2 | 6.4 | 0.00 | 0.00 | 0.00 | 58 | 1012.6 |
| 20260504021639 | 14 | 193 | 1.6 | 4.8 | 0.00 | 0.00 | 0.00 | 58 | 1012.7 |
| 20260504021139 | 14 | 129 | 1.6 | 4.8 | 0.00 | 0.00 | 0.00 | 58 | 1012.7 |
| 20260504020639 | 14 | 135 | 1.6 | 4.8 | 0.00 | 0.00 | 0.00 | 57 | 1012.7 |
| 20260504020139 | 14 | 140 | 1.6 | 4.8 | 0.00 | 0.00 | 0.00 | 56 | 1012.8 |
| 20260504015639 | 14 | 152 | 1.6 | 3.2 | 0.00 | 0.00 | 0.00 | 56 | 1012.7 |
| 20260504015139 | 14 | 169 | 1.6 | 4.8 | 0.00 | 0.00 | 0.00 | 56 | 1012.7 |
| 20260504014639 | 15 | 161 | 1.6 | 3.2 | 0.00 | 0.00 | 0.00 | 55 | 1012.7 |
| 20260504014139 | 15 | 164 | 1.6 | 4.8 | 0.00 | 0.00 | 0.00 | 54 | 1012.7 |
| 20260504013639 | 15 | 135 | 1.6 | 6.4 | 0.00 | 0.00 | 0.00 | 54 | 1012.7 |
| 20260504013139 | 15 | 117 | 1.6 | 3.2 | 0.00 | 0.00 | 0.00 | 54 | 1012.7 |
| 20260504012639 | 15 | 72 | 1.6 | 4.8 | 0.00 | 0.00 | 0.00 | 54 | 1012.7 |
| 20260504012139 | 15 | 72 | 1.6 | 4.8 | 0.00 | 0.00 | 0.00 | 53 | 1012.7 |
| 20260504011639 | 15 | 152 | 1.6 | 4.8 | 0.00 | 0.00 | 0.00 | 53 | 1012.7 |
| 20260504011139 | 15 | 135 | 1.6 | 4.8 | 0.00 | 0.00 | 0.00 | 53 | 1012.8 |
| 20260504010639 | 16 | 148 | 3.2 | 4.8 | 0.00 | 0.00 | 0.00 | 52 | 1012.8 |
| 20260504010139 | 16 | 121 | 1.6 | 4.8 | 0.00 | 0.00 | 0.00 | 51 | 1013.0 |
| 20260504005639 | 16 | 140 | 1.6 | 3.2 | 0.00 | 0.00 | 0.00 | 51 | 1013.0 |
| 20260504005139 | 16 | 135 | 1.6 | 1.6 | 0.00 | 0.00 | 0.00 | 51 | 1013.0 |
| 20260504004639 | 16 | 63 | 1.6 | 3.2 | 0.00 | 0.00 | 0.00 | 51 | 1013.1 |
| 20260504004139 | 16 | 89 | 1.6 | 3.2 | 0.00 | 0.00 | 0.00 | 50 | 1013.1 |
| 20260504003639 | 16 | 89 | 1.6 | 3.2 | 0.00 | 0.00 | 0.00 | 49 | 1013.2 |
| 20260504003139 | 16 | 121 | 1.6 | 3.2 | 0.00 | 0.00 | 0.00 | 49 | 1013.1 |
| 20260504002639 | 17 | 117 | 1.6 | 4.8 | 0.00 | 0.00 | 0.00 | 48 | 1013.0 |
| 20260504002139 | 17 | 89 | 1.6 | 3.2 | 0.00 | 0.00 | 0.00 | 48 | 1013.1 |
| 20260504001639 | 17 | 135 | 3.2 | 8.0 | 0.00 | 0.00 | 0.00 | 45 | 1013.1 |
| 20260504001139 | 17 | 223 | 1.6 | 6.4 | 0.00 | 0.00 | 0.00 | 45 | 1013.1 |
| 20260504000640 | 17 | 331 | 3.2 | 6.4 | 0.00 | 0.00 | 0.00 | 46 | 1013.1 |
| 20260504000139 | 17 | 248 | 3.2 | 14.5 | 0.00 | 0.00 | 0.00 | 45 | 1013.1 |
| 20260503235639 | 17 | 178 | 3.2 | 4.8 | 0.00 | 0.00 | 0.00 | 46 | 1013.0 |
| 20260503235139 | 18 | 283 | 3.2 | 12.9 | 0.00 | 0.00 | 0.00 | 44 | 1012.9 |
| 20260503234639 | 18 | 257 | 4.8 | 9.7 | 0.00 | 0.00 | 0.00 | 43 | 1012.7 |
| 20260503234139 | 18 | 129 | 6.4 | 14.5 | 0.00 | 0.00 | 0.00 | 43 | 1012.5 |
| 20260503233639 | 18 | 13 | 4.8 | 20.9 | 0.00 | 0.00 | 0.00 | 44 | 1012.3 |
| 20260503233139 | 18 | 51 | 4.8 | 11.3 | 0.00 | 0.00 | 0.00 | 44 | 1012.3 |
| 20260503232639 | 18 | 127 | 3.2 | 16.1 | 0.00 | 0.00 | 0.00 | 43 | 1012.3 |
| 20260503232139 | 18 | 324 | 4.8 | 9.7 | 0.00 | 0.00 | 0.00 | 43 | 1012.4 |
| 20260503231639 | 18 | 340 | 6.4 | 19.3 | 0.00 | 0.00 | 0.00 | 42 | 1012.4 |
| 20260503231139 | 18 | 241 | 6.4 | 16.1 | 0.00 | 0.00 | 0.00 | 41 | 1012.5 |
| 20260503230639 | 18 | 187 | 6.4 | 19.3 | 0.00 | 0.00 | 0.00 | 41 | 1012.5 |
| 20260503230139 | 19 | 138 | 6.4 | 16.1 | 0.00 | 0.00 | 0.00 | 41 | 1012.5 |
| 20260503225639 | 19 | 136 | 6.4 | 12.9 | 0.00 | 0.00 | 0.00 | 40 | 1012.6 |
| 20260503225139 | 19 | 246 | 6.4 | 19.3 | 0.00 | 0.00 | 0.00 | 40 | 1012.7 |
| 20260503224639 | 19 | 130 | 6.4 | 20.9 | 0.00 | 0.00 | 0.00 | 40 | 1012.7 |
| 20260503224139 | 20 | 197 | 6.4 | 14.5 | 0.00 | 0.00 | 0.00 | 40 | 1012.6 |
| 20260503223639 | 19 | 223 | 6.4 | 12.9 | 0.00 | 0.00 | 0.00 | 41 | 1012.7 |
| 20260503223139 | 19 | 126 | 6.4 | 16.1 | 0.00 | 0.00 | 0.00 | 41 | 1012.8 |
| 20260503222639 | 20 | 246 | 6.4 | 17.7 | 0.00 | 0.00 | 0.00 | 40 | 1013.0 |
| 20260503222140 | 20 | 248 | 6.4 | 14.5 | 0.00 | 0.00 | 0.00 | 40 | 1013.1 |
| 20260503221640 | 20 | 186 | 6.4 | 20.9 | 0.00 | 0.00 | 0.00 | 41 | 1013.1 |
| 20260503221140 | 20 | 283 | 6.4 | 14.5 | 0.00 | 0.00 | 0.00 | 42 | 1013.5 |
| 20260503220640 | 20 | 218 | 8.0 | 14.5 | 0.00 | 0.00 | 0.00 | 41 | 1013.4 |
| 20260503220140 | 19 | 290 | 9.7 | 27.4 | 0.00 | 0.00 | 0.00 | 40 | 1013.5 |
| 20260503215640 | 19 | 295 | 8.0 | 19.3 | 0.00 | 0.00 | 0.00 | 42 | 1013.7 |
| 20260503215140 | 20 | 203 | 6.4 | 17.7 | 0.00 | 0.00 | 0.00 | 40 | 1013.7 |
| 20260503214640 | 20 | 81 | 6.4 | 19.3 | 0.00 | 0.00 | 0.00 | 41 | 1013.7 |
| 20260503214140 | 20 | 196 | 6.4 | 19.3 | 0.00 | 0.00 | 0.00 | 40 | 1013.8 |
| 20260503213640 | 20 | 142 | 6.4 | 14.5 | 0.00 | 0.00 | 0.00 | 42 | 1013.9 |
| 20260503213140 | 20 | 327 | 6.4 | 14.5 | 0.00 | 0.00 | 0.00 | 44 | 1014.0 |
| 20260503212640 | 20 | 202 | 6.4 | 19.3 | 0.00 | 0.00 | 0.00 | 42 | 1014.2 |
| 20260503212140 | 20 | 269 | 6.4 | 16.1 | 0.00 | 0.00 | 0.00 | 43 | 1014.5 |
| 20260503211640 | 20 | 193 | 8.0 | 17.7 | 0.00 | 0.00 | 0.00 | 40 | 1014.7 |
| 20260503211140 | 20 | 207 | 6.4 | 19.3 | 0.00 | 0.00 | 0.00 | 40 | 1014.6 |
| 20260503210640 | 20 | 276 | 6.4 | 14.5 | 0.00 | 0.00 | 0.00 | 41 | 1014.7 |
| 20260503210140 | 20 | 227 | 6.4 | 19.3 | 0.00 | 0.00 | 0.00 | 41 | 1014.7 |
| 20260503205640 | 19 | 223 | 6.4 | 12.9 | 0.00 | 0.00 | 0.00 | 41 | 1014.9 |
| 20260503205140 | 19 | 238 | 8.0 | 16.1 | 0.00 | 0.00 | 0.00 | 41 | 1015.1 |
| 20260503204640 | 19 | 201 | 8.0 | 19.3 | 0.00 | 0.00 | 0.00 | 43 | 1015.2 |
| 20260503204140 | 20 | 229 | 8.0 | 27.4 | 0.00 | 0.00 | 0.00 | 40 | 1015.4 |
| 20260503203640 | 20 | 156 | 6.4 | 19.3 | 0.00 | 0.00 | 0.00 | 42 | 1015.4 |
| 20260503203140 | 20 | 162 | 6.4 | 14.5 | 0.00 | 0.00 | 0.00 | 42 | 1015.6 |
| 20260503202640 | 19 | 252 | 6.4 | 19.3 | 0.00 | 0.00 | 0.00 | 44 | 1015.6 |
| 20260503202140 | 19 | 165 | 6.4 | 17.7 | 0.00 | 0.00 | 0.00 | 43 | 1015.6 |
| 20260503201640 | 18 | 269 | 8.0 | 20.9 | 0.00 | 0.00 | 0.00 | 42 | 1015.6 |
| 20260503201140 | 19 | 204 | 8.0 | 22.5 | 0.00 | 0.00 | 0.00 | 41 | 1015.7 |
| 20260503200640 | 19 | 235 | 6.4 | 22.5 | 0.00 | 0.00 | 0.00 | 43 | 1015.8 |
| 20260503200140 | 19 | 215 | 6.4 | 25.7 | 0.00 | 0.00 | 0.00 | 46 | 1016.0 |
| 20260503195640 | 19 | 240 | 8.0 | 16.1 | 0.00 | 0.00 | 0.00 | 42 | 1016.2 |
| 20260503195140 | 18 | 186 | 8.0 | 20.9 | 0.00 | 0.00 | 0.00 | 42 | 1016.3 |
| 20260503194640 | 19 | 228 | 6.4 | 22.5 | 0.00 | 0.00 | 0.00 | 44 | 1016.5 |
| 20260503194140 | 18 | 264 | 6.4 | 17.7 | 0.00 | 0.00 | 0.00 | 43 | 1016.6 |
| 20260503193640 | 18 | 162 | 6.4 | 22.5 | 0.00 | 0.00 | 0.00 | 44 | 1016.7 |
| 20260503193140 | 19 | 262 | 6.4 | 19.3 | 0.00 | 0.00 | 0.00 | 41 | 1016.7 |
| 20260503192640 | 18 | 235 | 4.8 | 14.5 | 0.00 | 0.00 | 0.00 | 43 | 1016.8 |
| 20260503192140 | 18 | 301 | 6.4 | 12.9 | 0.00 | 0.00 | 0.00 | 45 | 1017.0 |
| 20260503191640 | 18 | 219 | 8.0 | 17.7 | 0.00 | 0.00 | 0.00 | 39 | 1017.2 |
| 20260503191140 | 18 | 220 | 8.0 | 20.9 | 0.00 | 0.00 | 0.00 | 42 | 1017.2 |
| 20260503190640 | 18 | 213 | 8.0 | 19.3 | 0.00 | 0.00 | 0.00 | 42 | 1017.2 |
| 20260503190140 | 18 | 307 | 6.4 | 16.1 | 0.00 | 0.00 | 0.00 | 43 | 1017.4 |
| 20260503185640 | 18 | 252 | 6.4 | 22.5 | 0.00 | 0.00 | 0.00 | 44 | 1017.6 |
| 20260503185140 | 18 | 303 | 8.0 | 14.5 | 0.00 | 0.00 | 0.00 | 44 | 1017.5 |
| 20260503184640 | 18 | 278 | 8.0 | 24.1 | 0.00 | 0.00 | 0.00 | 43 | 1017.7 |
| 20260503184140 | 18 | 167 | 8.0 | 17.7 | 0.00 | 0.00 | 0.00 | 45 | 1017.9 |
| 20260503183640 | 18 | 283 | 8.0 | 25.7 | 0.00 | 0.00 | 0.00 | 44 | 1018.0 |
| 20260503183140 | 17 | 147 | 6.4 | 19.3 | 0.00 | 0.00 | 0.00 | 46 | 1018.1 |
| 20260503182640 | 17 | 253 | 6.4 | 19.3 | 0.00 | 0.00 | 0.00 | 47 | 1018.3 |
| 20260503182140 | 17 | 6 | 6.4 | 19.3 | 0.00 | 0.00 | 0.00 | 46 | 1018.4 |
| 20260503181640 | 17 | 207 | 8.0 | 17.7 | 0.00 | 0.00 | 0.00 | 46 | 1018.5 |
| 20260503181140 | 18 | 279 | 6.4 | 17.7 | 0.00 | 0.00 | 0.00 | 42 | 1018.6 |
| 20260503180640 | 18 | 262 | 6.4 | 16.1 | 0.00 | 0.00 | 0.00 | 43 | 1018.6 |
| 20260503180140 | 17 | 159 | 6.4 | 19.3 | 0.00 | 0.00 | 0.00 | 45 | 1018.6 |
| 20260503175640 | 18 | 207 | 4.8 | 16.1 | 0.00 | 0.00 | 0.00 | 45 | 1018.8 |
| 20260503175140 | 17 | 216 | 6.4 | 22.5 | 0.00 | 0.00 | 0.00 | 46 | 1019.0 |
| 20260503174640 | 17 | 169 | 6.4 | 12.9 | 0.00 | 0.00 | 0.00 | 46 | 1019.1 |
| 20260503174140 | 17 | 269 | 6.4 | 17.7 | 0.00 | 0.00 | 0.00 | 44 | 1019.1 |
| 20260503173640 | 17 | 187 | 6.4 | 17.7 | 0.00 | 0.00 | 0.00 | 44 | 1019.2 |
| 20260503173140 | 17 | 228 | 6.4 | 16.1 | 0.00 | 0.00 | 0.00 | 45 | 1019.3 |
| 20260503172640 | 17 | 159 | 6.4 | 14.5 | 0.00 | 0.00 | 0.00 | 48 | 1019.4 |
| 20260503172140 | 16 | 152 | 8.0 | 17.7 | 0.00 | 0.00 | 0.00 | 45 | 1019.5 |
| 20260503171640 | 17 | 258 | 6.4 | 22.5 | 0.00 | 0.00 | 0.00 | 46 | 1019.7 |
| 20260503171140 | 17 | 193 | 6.4 | 11.3 | 0.00 | 0.00 | 0.00 | 46 | 1019.8 |
| 20260503170640 | 16 | 108 | 4.8 | 17.7 | 0.00 | 0.00 | 0.00 | 47 | 1019.8 |
| 20260503170140 | 17 | 119 | 4.8 | 17.7 | 0.00 | 0.00 | 0.00 | 47 | 1019.8 |
| 20260503160140 | 16 | 157 | 4.8 | 12.9 | 0.00 | 0.00 | 0.00 | 47 | 1020.4 |
| 20260503150640 | 14 | 166 | 6.4 | 16.1 | 0.00 | 0.00 | 0.00 | 54 | 1020.8 |
| 20260503150140 | 14 | 230 | 4.8 | 12.9 | 0.00 | 0.00 | 0.00 | 53 | 1020.9 |
| 20260503140140 | 11 | 295 | 4.8 | 9.7 | 0.00 | 0.03 | 0.00 | 62 | 1020.9 |
| 20260503131140 | 9 | 135 | 3.2 | 14.5 | 0.00 | 0.05 | 0.00 | 74 | 1020.9 |
| 20260503130640 | 9 | 161 | 3.2 | 8.0 | 0.00 | 0.05 | 0.00 | 76 | 1021.0 |
| 20260503130140 | 8 | 107 | 3.2 | 8.0 | 0.00 | 0.05 | 0.00 | 77 | 1021.0 |
| 20260503120141 | 5 | 193 | 1.6 | 3.2 | 0.00 | 0.08 | 0.00 | 87 | 1020.9 |
| 20260503110641 | 2 | 135 | 1.6 | 3.2 | 0.00 | 0.08 | 0.00 | 91 | 1020.4 |
| 20260503110141 | 2 | 46 | 1.6 | 3.2 | 0.00 | 0.08 | 0.00 | 91 | 1020.4 |
| 20260503100141 | 2 | 46 | 0.0 | 1.6 | 0.00 | 0.08 | 0.00 | 92 | 1020.3 |
| 20260503090141 | 2 | 135 | 0.0 | 1.6 | 0.00 | 0.08 | 0.00 | 92 | 1020.4 |